Weather History for KOOA - March, 2014

Change the Weather History Date:

Thursday, March 6, 2014

  Actual Average (KOTM) Record (KOTM)
Temperature  
Mean Temperature 26 °F 35 °F  
Max Temperature 35 °F 44 °F 73 °F (2000)
Min Temperature 17 °F 25 °F -11 °F (1960)
Degree Days  
Heating Degree Days 39 30  
Month to date heating degree days 189  
Since 1 July heating degree days 5074  
Cooling Degree Days 0 0  
Month to date cooling degree days 0  
Year to date cooling degree days 0  
Moisture  
Dew Point 20 °F    
Average Humidity 85    
Maximum Humidity 93    
Minimum Humidity 71    
Precipitation  
Precipitation 0.00 in 0.06 in 1.10 in (1959)
Month to date precipitation 0.40  
Year to date precipitation 2.58  
Sea Level Pressure  
Sea Level Pressure 30.18 in    
Wind  
Wind Speed 9 mph (SE)    
Max Wind Speed 13 mph    
Max Gust Speed -    
Visibility 7 miles    
Events Snow    
T = Trace of Precipitation, MM = Missing Value Source: NWS Daily Summary

Daily Weather History Graph

Daily Weather History Graph

Search for Another Location

Airport or City:

Trip Planner

Search our weather history database for the weather conditions in past years. The results will help you decide how hot, cold, wet, or windy it might be!

Date:

Astronomy

Mar. 06, 2014 Rise Set
Actual Time 6:36 AM CST 6:06 PM CST
Civil Twilight 6:08 AM CST 6:34 PM CST
Nautical Twilight 5:36 AM CST 7:06 PM CST
Astronomical Twilight 5:04 AM CST 7:38 PM CST
Moon 9:41 AM CST (3/6) No Moon Set
Length of Visible Light 12h 25m
Length of Day
11h 30m
Waxing Crescent, 32% of the Moon is Illuminated
Mar 6
Waxing Crescent
Mar 8
First Quarter
Mar 16
Full
Mar 23
Last Quarter
Mar 30
New

Hourly Weather History & Observations

Time (CST) Temp. Windchill Dew Point Humidity Pressure Visibility Wind Dir Wind Speed Gust Speed Precip Events Conditions
12:15 AM 20.3 °F 9.0 °F 16.7 °F 86% 30.34 in 10.0 mi ESE 10.4 mph - N/A   Overcast
12:35 AM 20.3 °F 9.0 °F 16.7 °F 86% 30.35 in 10.0 mi ESE 10.4 mph - N/A   Overcast
12:55 AM 19.9 °F 8.6 °F 16.5 °F 87% 30.34 in 10.0 mi ESE 10.4 mph - N/A   Overcast
1:15 AM 19.4 °F 6.6 °F 16.0 °F 87% 30.34 in 10.0 mi ESE 12.7 mph - N/A   Overcast
1:35 AM 19.4 °F 7.9 °F 15.8 °F 86% 30.34 in 10.0 mi East 10.4 mph - N/A   Overcast
1:55 AM 19.4 °F 8.6 °F 16.0 °F 87% 30.33 in 10.0 mi East 9.2 mph - N/A   Overcast
2:15 AM 19.4 °F 7.9 °F 16.2 °F 87% 30.32 in 10.0 mi ESE 10.4 mph - N/A   Overcast
2:35 AM 19.2 °F 8.4 °F 16.2 °F 88% 30.32 in 10.0 mi East 9.2 mph - N/A   Overcast
2:55 AM 19.2 °F 9.3 °F 16.2 °F 88% 30.32 in 10.0 mi ESE 8.1 mph - N/A   Overcast
3:15 AM 19.2 °F 9.3 °F 16.3 °F 89% 30.32 in 10.0 mi East 8.1 mph - N/A   Overcast
3:35 AM 19.2 °F 11.3 °F 16.5 °F 89% 30.32 in 10.0 mi East 5.8 mph - N/A   Overcast
3:55 AM 19.2 °F 10.2 °F 16.5 °F 89% 30.32 in 10.0 mi ESE 6.9 mph - N/A   Overcast
4:15 AM 19.0 °F 9.0 °F 16.5 °F 90% 30.31 in 10.0 mi ESE 8.1 mph - N/A   Overcast
4:35 AM 18.5 °F 10.4 °F 15.8 °F 89% 30.31 in 7.0 mi East 5.8 mph - N/A   Overcast
4:55 AM 18.3 °F 10.2 °F 15.6 °F 89% 30.30 in 10.0 mi East 5.8 mph - N/A   Overcast
5:15 AM 18.3 °F 10.2 °F 15.8 °F 90% 30.30 in 10.0 mi ESE 5.8 mph - N/A   Overcast
5:35 AM 18.3 °F 11.5 °F 15.8 °F 90% 30.30 in 7.0 mi ESE 4.6 mph - N/A   Overcast
5:55 AM 18.5 °F 9.3 °F 16.3 °F 91% 30.30 in 7.0 mi SE 6.9 mph - N/A   Overcast
6:15 AM 18.5 °F 9.3 °F 16.5 °F 92% 30.30 in 5.0 mi ESE 6.9 mph - N/A   Overcast
6:35 AM 18.3 °F 9.1 °F 16.3 °F 92% 30.30 in 5.0 mi SE 6.9 mph - N/A   Overcast
6:55 AM 18.1 °F 8.9 °F 16.2 °F 92% 30.29 in 5.0 mi SE 6.9 mph - N/A   Overcast
7:15 AM 18.0 °F 7.7 °F 16.2 °F 93% 30.29 in 4.0 mi SE 8.1 mph - N/A   Overcast
7:35 AM 18.0 °F 6.9 °F 16.2 °F 93% 30.28 in 2.5 mi SE 9.2 mph - N/A Snow Light Snow
7:55 AM 17.6 °F 7.3 °F 15.8 °F 93% 30.28 in 3.0 mi SE 8.1 mph - N/A Snow Light Snow
8:15 AM 18.0 °F 7.7 °F 15.8 °F 91% 30.29 in 2.5 mi SE 8.1 mph - N/A Snow Light Snow
8:35 AM 18.1 °F 8.9 °F 15.6 °F 90% 30.28 in 3.0 mi SE 6.9 mph - N/A Snow Light Snow
8:55 AM 18.1 °F 7.1 °F 15.6 °F 90% 30.27 in 3.0 mi SE 9.2 mph - N/A   Overcast
9:15 AM 18.5 °F 7.5 °F 16.0 °F 90% 30.27 in 4.0 mi SE 9.2 mph - N/A   Overcast
9:35 AM 19.0 °F 9.0 °F 16.2 °F 89% 30.27 in 3.0 mi ESE 8.1 mph - N/A   Overcast
9:55 AM 19.9 °F 9.3 °F 16.3 °F 86% 30.26 in 4.0 mi ESE 9.2 mph - N/A   Overcast
10:15 AM 20.3 °F 9.8 °F 16.5 °F 85% 30.26 in 5.0 mi SE 9.2 mph - N/A   Overcast
10:35 AM 20.7 °F 11.0 °F 17.1 °F 86% 30.25 in 7.0 mi SE 8.1 mph - N/A   Overcast
10:55 AM 21.2 °F 12.6 °F 17.6 °F 86% 30.25 in 5.0 mi SE 6.9 mph - N/A   Overcast
11:15 AM 22.1 °F 12.0 °F 18.5 °F 86% 30.24 in 7.0 mi SE 9.2 mph - N/A   Overcast
11:35 AM 23.4 °F 13.5 °F 19.0 °F 84% 30.23 in 7.0 mi SSE 9.2 mph - N/A   Scattered Clouds
11:55 AM 23.9 °F 14.2 °F 19.2 °F 82% 30.22 in 7.0 mi SE 9.2 mph - N/A   Clear
12:15 PM 25.7 °F 18.0 °F 20.3 °F 80% 30.21 in 7.0 mi SSE 6.9 mph - N/A   Clear
12:30 PM 26.1 °F 18.4 °F 20.5 °F 79% 30.20 in 10.0 mi SSE 6.9 mph - N/A   Clear
12:55 PM 27.5 °F 22.2 °F 21.4 °F 78% 30.19 in 10.0 mi SE 4.6 mph - N/A   Clear
1:15 PM 29.1 °F 25.4 °F 21.9 °F 74% 30.17 in 10.0 mi ESE 3.5 mph - N/A   Clear
1:35 PM 30.0 °F 24.1 °F 22.5 °F 73% 30.15 in 10.0 mi ESE 5.8 mph - N/A   Clear
1:55 PM 31.3 °F 26.6 °F 23.0 °F 71% 30.15 in 10.0 mi ESE 4.6 mph - N/A   Clear
2:15 PM 31.8 °F 26.2 °F 23.9 °F 73% 30.14 in 10.0 mi East 5.8 mph - N/A   Clear
2:35 PM 32.0 °F 25.6 °F 24.8 °F 75% 30.12 in 10.0 mi ESE 6.9 mph - N/A   Clear
2:55 PM 32.9 °F 26.7 °F 25.0 °F 73% 30.12 in 10.0 mi SE 6.9 mph - N/A   Clear
3:15 PM 33.6 °F 26.2 °F 25.3 °F 72% 30.11 in 10.0 mi SE 9.2 mph - N/A   Clear
3:35 PM 33.8 °F 26.4 °F 25.7 °F 72% 30.10 in 10.0 mi SE 9.2 mph - N/A   Clear
3:55 PM 34.0 °F 26.0 °F 26.1 °F 73% 30.09 in 10.0 mi SE 10.4 mph - N/A   Clear
4:15 PM 34.7 °F 26.9 °F 26.6 °F 72% 30.08 in 10.0 mi SSE 10.4 mph - N/A   Clear
4:35 PM 35.1 °F 26.9 °F 26.6 °F 71% 30.07 in 10.0 mi SSE 11.5 mph - N/A   Clear
4:55 PM 34.7 °F 28.1 °F 27.5 °F 75% 30.06 in 10.0 mi SSE 8.1 mph - N/A   Clear
5:10 PM 34.2 °F 27.5 °F 27.5 °F 77% 30.05 in 10.0 mi SSE 8.1 mph - N/A   Clear
5:35 PM 33.4 °F 25.4 °F 27.3 °F 78% 30.05 in 7.0 mi SSE 10.4 mph - N/A   Clear
5:55 PM 31.8 °F 24.6 °F 26.4 °F 80% 30.05 in 7.0 mi SSE 8.1 mph - N/A   Clear
6:15 PM 30.4 °F 22.9 °F 25.7 °F 83% 30.04 in 7.0 mi SE 8.1 mph - N/A   Clear
6:35 PM 30.6 °F 21.8 °F 26.1 °F 83% 30.02 in 7.0 mi SE 10.4 mph - N/A   Clear
6:55 PM 30.2 °F 21.9 °F 25.7 °F 83% 30.02 in 7.0 mi SE 9.2 mph - N/A   Clear
7:15 PM 30.0 °F 21.1 °F 25.3 °F 83% 30.02 in 7.0 mi SE 10.4 mph - N/A   Clear
7:35 PM 28.8 °F 20.2 °F 24.6 °F 84% 30.02 in 7.0 mi SE 9.2 mph - N/A   Clear
7:55 PM 29.1 °F 20.0 °F 25.2 °F 85% 30.02 in 7.0 mi SE 10.4 mph - N/A   Clear
8:15 PM 28.0 °F 18.1 °F 24.4 °F 86% 30.00 in 7.0 mi SE 11.5 mph - N/A   Clear
8:35 PM 28.0 °F 18.6 °F 24.3 °F 86% 30.00 in 7.0 mi SE 10.4 mph - N/A   Clear
8:55 PM 27.5 °F 18.6 °F 23.9 °F 86% 30.00 in 5.0 mi SE 9.2 mph - N/A   Clear
9:15 PM 27.5 °F 18.0 °F 24.3 °F 88% 30.00 in 5.0 mi SE 10.4 mph - N/A   Clear
9:35 PM 27.5 °F 18.6 °F 24.4 °F 88% 30.00 in 5.0 mi SE 9.2 mph - N/A   Clear
9:55 PM 26.6 °F 16.8 °F 23.5 °F 88% 29.99 in 5.0 mi SE 10.4 mph - N/A   Clear
10:15 PM 26.8 °F 17.1 °F 23.9 °F 89% 29.99 in 5.0 mi SSE 10.4 mph - N/A   Clear
10:35 PM 26.4 °F 18.0 °F 23.5 °F 89% 29.98 in 5.0 mi SSE 8.1 mph - N/A   Clear
10:55 PM 26.1 °F 16.8 °F 23.0 °F 88% 29.98 in 5.0 mi SE 9.2 mph - N/A   Clear
11:15 PM 25.9 °F 18.2 °F 22.8 °F 88% 29.98 in 7.0 mi SSE 6.9 mph - N/A   Clear
11:35 PM 26.1 °F 16.8 °F 22.8 °F 88% 29.97 in 7.0 mi SSE 9.2 mph - N/A   Clear
11:55 PM 27.0 °F 18.7 °F 23.5 °F 87% 29.97 in 7.0 mi SSE 8.1 mph - N/A   Clear